| time (UTC) | temp F | wind direction | speed MPH | gust MPH | rain 1hr in | rain 24hr in | rain mn in | humidity % | barometer mb |
| 20260505034351 | 59 | 190 | 2.0 | 8.0 | 0.00 | 0.00 | 0.00 | 61 | 1012.7 |
| 20260505033848 | 60 | 201 | 3.0 | 10.0 | 0.00 | 0.00 | 0.00 | 60 | 1012.8 |
| 20260505033345 | 59 | 198 | 4.0 | 8.0 | 0.00 | 0.00 | 0.00 | 62 | 1012.7 |
| 20260505032843 | 59 | 154 | 4.0 | 13.0 | 0.00 | 0.00 | 0.00 | 60 | 1012.7 |
| 20260505032339 | 59 | 169 | 4.0 | 8.0 | 0.00 | 0.00 | 0.00 | 61 | 1012.6 |
| 20260505031836 | 59 | 207 | 6.0 | 8.0 | 0.00 | 0.00 | 0.00 | 62 | 1012.8 |
| 20260505031333 | 59 | 145 | 2.0 | 10.0 | 0.00 | 0.00 | 0.00 | 61 | 1012.8 |
| 20260505030830 | 59 | 207 | 5.0 | 9.0 | 0.00 | 0.00 | 0.00 | 61 | 1012.9 |
| 20260505030326 | 59 | 208 | 5.0 | 7.0 | 0.00 | 0.00 | 0.00 | 62 | 1012.8 |
| 20260505025822 | 59 | 181 | 1.0 | 7.0 | 0.00 | 0.00 | 0.00 | 62 | 1012.9 |
| 20260505025320 | 59 | 214 | 4.0 | 11.0 | 0.00 | 0.00 | 0.00 | 61 | 1012.9 |
| 20260505024818 | 59 | 205 | 3.0 | 6.0 | 0.00 | 0.00 | 0.00 | 62 | 1012.9 |
| 20260505024315 | 59 | 182 | 5.0 | 9.0 | 0.00 | 0.00 | 0.00 | 63 | 1013.0 |
| 20260505023812 | 59 | 161 | 5.0 | 8.0 | 0.00 | 0.00 | 0.00 | 63 | 1013.1 |
| 20260505023309 | 58 | 228 | 6.0 | 8.0 | 0.00 | 0.00 | 0.00 | 64 | 1013.1 |
| 20260505022806 | 58 | 210 | 4.0 | 4.0 | 0.00 | 0.00 | 0.00 | 65 | 1013.0 |
| 20260505022304 | 58 | 194 | 5.0 | 8.0 | 0.00 | 0.00 | 0.00 | 65 | 1013.1 |
| 20260505021800 | 58 | 217 | 1.0 | 6.0 | 0.00 | 0.00 | 0.00 | 65 | 1013.0 |
| 20260505021257 | 58 | 199 | 2.0 | 3.0 | 0.00 | 0.00 | 0.00 | 67 | 1013.0 |
| 20260505020753 | 58 | 221 | 1.0 | 2.0 | 0.00 | 0.00 | 0.00 | 66 | 1012.9 |
| 20260505020248 | 58 | 226 | 1.0 | 4.0 | 0.00 | 0.00 | 0.00 | 65 | 1013.1 |
| 20260505015746 | 58 | 170 | 4.0 | 9.0 | 0.00 | 0.00 | 0.00 | 64 | 1013.0 |
| 20260505015242 | 58 | 210 | 2.0 | 3.0 | 0.00 | 0.00 | 0.00 | 67 | 1013.2 |
| 20260505014740 | 57 | 132 | 1.0 | 4.0 | 0.00 | 0.00 | 0.00 | 67 | 1013.1 |
| 20260505014237 | 58 | 250 | 1.0 | 4.0 | 0.00 | 0.00 | 0.00 | 67 | 1013.3 |
| 20260505013733 | 58 | 201 | 2.0 | 3.0 | 0.00 | 0.00 | 0.00 | 67 | 1013.1 |
| 20260505013231 | 58 | 208 | 2.0 | 6.0 | 0.00 | 0.00 | 0.00 | 66 | 1013.0 |
| 20260505012729 | 58 | 226 | 2.0 | 3.0 | 0.00 | 0.00 | 0.00 | 67 | 1013.1 |
| 20260505012226 | 58 | 211 | 1.0 | 3.0 | 0.00 | 0.00 | 0.00 | 66 | 1013.3 |
| 20260505011721 | 57 | 112 | 3.0 | 4.0 | 0.00 | 0.00 | 0.00 | 65 | 1013.0 |
| 20260505011219 | 57 | 179 | 2.0 | 2.0 | 0.00 | 0.00 | 0.00 | 68 | 1012.9 |
| 20260505010714 | 58 | 187 | 2.0 | 3.0 | 0.00 | 0.00 | 0.00 | 68 | 1013.0 |
| 20260505010211 | 58 | 171 | 1.0 | 3.0 | 0.00 | 0.00 | 0.00 | 67 | 1012.9 |
| 20260505005707 | 58 | 229 | 0.0 | 2.0 | 0.00 | 0.00 | 0.00 | 66 | 1012.6 |
| 20260505005205 | 59 | 216 | 1.0 | 6.0 | 0.00 | 0.00 | 0.00 | 64 | 1012.6 |
| 20260505004702 | 59 | 193 | 3.0 | 4.0 | 0.00 | 0.00 | 0.00 | 65 | 1012.6 |
| 20260505004158 | 59 | 203 | 1.0 | 2.0 | 0.00 | 0.00 | 0.00 | 65 | 1012.6 |
| 20260505003655 | 59 | 201 | 1.0 | 3.0 | 0.00 | 0.00 | 0.00 | 66 | 1012.8 |
| 20260505003153 | 59 | 228 | 1.0 | 3.0 | 0.00 | 0.00 | 0.00 | 66 | 1012.7 |
| 20260505002649 | 59 | 209 | 1.0 | 6.0 | 0.00 | 0.00 | 0.00 | 64 | 1012.6 |
| 20260505002147 | 59 | 125 | 1.0 | 3.0 | 0.00 | 0.00 | 0.00 | 65 | 1012.4 |
| 20260505001644 | 58 | 209 | 2.0 | 3.0 | 0.00 | 0.00 | 0.00 | 66 | 1012.6 |
| 20260505001141 | 59 | 161 | 3.0 | 4.0 | 0.00 | 0.00 | 0.00 | 65 | 1012.8 |
| 20260505000638 | 59 | 217 | 2.0 | 3.0 | 0.00 | 0.00 | 0.00 | 65 | 1012.5 |
| 20260505000137 | 60 | 214 | 3.0 | 6.0 | 0.00 | 0.00 | 0.00 | 63 | 1012.6 |
| 20260504235632 | 60 | 216 | 3.0 | 3.0 | 0.00 | 0.00 | 0.00 | 61 | 1012.4 |
| 20260504235129 | 60 | 195 | 1.0 | 2.0 | 0.00 | 0.00 | 0.00 | 64 | 1012.1 |
| 20260504234626 | 60 | 182 | 5.0 | 7.0 | 0.00 | 0.00 | 0.00 | 60 | 1012.3 |
| 20260504234123 | 60 | 155 | 2.0 | 6.0 | 0.00 | 0.00 | 0.00 | 61 | 1012.0 |
| 20260504233619 | 60 | 197 | 3.0 | 4.0 | 0.00 | 0.00 | 0.00 | 62 | 1012.4 |
| 20260504233115 | 61 | 172 | 3.0 | 4.0 | 0.00 | 0.00 | 0.00 | 61 | 1012.3 |
| 20260504232613 | 62 | 180 | 2.0 | 4.0 | 0.00 | 0.00 | 0.00 | 60 | 1012.0 |
| 20260504232110 | 62 | 219 | 2.0 | 10.0 | 0.00 | 0.00 | 0.00 | 60 | 1012.0 |
| 20260504231606 | 61 | 199 | 3.0 | 4.0 | 0.00 | 0.00 | 0.00 | 61 | 1012.0 |
| 20260504231102 | 62 | 170 | 3.0 | 8.0 | 0.00 | 0.00 | 0.00 | 59 | 1012.3 |
| 20260504230558 | 62 | 203 | 2.0 | 4.0 | 0.00 | 0.00 | 0.00 | 58 | 1012.3 |
| 20260504230058 | 62 | 242 | 6.0 | 8.0 | 0.00 | 0.00 | 0.00 | 57 | 1012.4 |
| 20260504225555 | 61 | 97 | 3.0 | 4.0 | 0.00 | 0.00 | 0.00 | 58 | 1012.5 |
| 20260504225052 | 61 | 174 | 5.0 | 11.0 | 0.00 | 0.00 | 0.00 | 58 | 1012.3 |
| 20260504224548 | 62 | 228 | 2.0 | 7.0 | 0.00 | 0.00 | 0.00 | 58 | 1012.5 |
| 20260504224046 | 62 | 231 | 13.0 | 24.0 | 0.00 | 0.00 | 0.00 | 58 | 1012.5 |
| 20260504223542 | 62 | 190 | 3.0 | 4.0 | 0.00 | 0.00 | 0.00 | 60 | 1012.1 |
| 20260504223038 | 62 | 141 | 4.0 | 4.0 | 0.00 | 0.00 | 0.00 | 58 | 1012.1 |
| 20260504222535 | 62 | 173 | 5.0 | 10.0 | 0.00 | 0.00 | 0.00 | 57 | 1012.1 |
| 20260504222032 | 63 | 89 | 3.0 | 11.0 | 0.00 | 0.00 | 0.00 | 56 | 1012.3 |
| 20260504221530 | 63 | 153 | 6.0 | 8.0 | 0.00 | 0.00 | 0.00 | 55 | 1012.5 |
| 20260504221026 | 63 | 188 | 4.0 | 7.0 | 0.00 | 0.00 | 0.00 | 58 | 1012.1 |
| 20260504220523 | 63 | 177 | 3.0 | 4.0 | 0.00 | 0.00 | 0.00 | 61 | 1012.3 |
| 20260504220020 | 64 | 226 | 0.0 | 13.0 | 0.00 | 0.00 | 0.00 | 58 | 1012.0 |
| 20260504215516 | 64 | 202 | 4.0 | 11.0 | 0.00 | 0.00 | 0.00 | 57 | 1012.1 |
| 20260504215014 | 65 | 288 | 6.0 | 9.0 | 0.00 | 0.00 | 0.00 | 56 | 1012.0 |
| 20260504214510 | 64 | 183 | 4.0 | 7.0 | 0.00 | 0.00 | 0.00 | 56 | 1012.3 |
| 20260504214006 | 65 | 219 | 7.0 | 11.0 | 0.00 | 0.00 | 0.00 | 54 | 1012.3 |
| 20260504213502 | 64 | 152 | 6.0 | 8.0 | 0.00 | 0.00 | 0.00 | 57 | 1012.1 |
| 20260504213000 | 63 | 207 | 4.0 | 8.0 | 0.00 | 0.00 | 0.00 | 55 | 1012.1 |
| 20260504212455 | 63 | 165 | 3.0 | 6.0 | 0.00 | 0.00 | 0.00 | 54 | 1012.1 |
| 20260504211953 | 64 | 247 | 1.0 | 8.0 | 0.00 | 0.00 | 0.00 | 56 | 1012.0 |
| 20260504211449 | 65 | 229 | 1.0 | 6.0 | 0.00 | 0.00 | 0.00 | 54 | 1012.0 |
| 20260504210947 | 65 | 240 | 0.0 | 8.0 | 0.00 | 0.00 | 0.00 | 52 | 1012.1 |
| 20260504210444 | 66 | 200 | 3.0 | 7.0 | 0.00 | 0.00 | 0.00 | 52 | 1012.0 |
| 20260504205941 | 66 | 131 | 4.0 | 6.0 | 0.00 | 0.00 | 0.00 | 49 | 1011.9 |
| 20260504205438 | 67 | 183 | 5.0 | 9.0 | 0.00 | 0.00 | 0.00 | 55 | 1011.8 |
| 20260504204936 | 65 | 263 | 3.0 | 8.0 | 0.00 | 0.00 | 0.00 | 55 | 1011.9 |
| 20260504204434 | 65 | 247 | 4.0 | 6.0 | 0.00 | 0.00 | 0.00 | 54 | 1012.0 |
| 20260504203933 | 64 | 221 | 6.0 | 9.0 | 0.00 | 0.00 | 0.00 | 55 | 1012.0 |
| 20260504203431 | 67 | 133 | 5.0 | 8.0 | 0.00 | 0.00 | 0.00 | 50 | 1011.8 |
| 20260504202927 | 67 | 166 | 6.0 | 9.0 | 0.00 | 0.00 | 0.00 | 49 | 1011.9 |
| 20260504202423 | 68 | 215 | 2.0 | 7.0 | 0.00 | 0.00 | 0.00 | 51 | 1011.9 |
| 20260504201920 | 66 | 121 | 4.0 | 9.0 | 0.00 | 0.00 | 0.00 | 51 | 1011.7 |
| 20260504201418 | 65 | 151 | 3.0 | 6.0 | 0.00 | 0.00 | 0.00 | 49 | 1011.8 |
| 20260504200915 | 66 | 191 | 4.0 | 4.0 | 0.00 | 0.00 | 0.00 | 50 | 1011.8 |
| 20260504200411 | 65 | 163 | 6.0 | 17.0 | 0.00 | 0.00 | 0.00 | 47 | 1011.7 |
| 20260504195908 | 67 | 178 | 4.0 | 7.0 | 0.00 | 0.00 | 0.00 | 52 | 1012.3 |
| 20260504195404 | 68 | 175 | 4.0 | 6.0 | 0.00 | 0.00 | 0.00 | 56 | 1012.0 |
| 20260504194901 | 68 | 97 | 5.0 | 7.0 | 0.00 | 0.00 | 0.00 | 51 | 1011.9 |
| 20260504194356 | 65 | 166 | 7.0 | 15.0 | 0.00 | 0.00 | 0.00 | 51 | 1012.1 |
| 20260504193853 | 65 | 220 | 4.0 | 11.0 | 0.00 | 0.00 | 0.00 | 54 | 1012.3 |
| 20260504193350 | 66 | 114 | 3.0 | 4.0 | 0.00 | 0.00 | 0.00 | 48 | 1012.4 |
| 20260504192849 | 65 | 75 | 3.0 | 10.0 | 0.00 | 0.00 | 0.00 | 53 | 1012.4 |
| 20260504192346 | 66 | 247 | 3.0 | 7.0 | 0.00 | 0.00 | 0.00 | 52 | 1012.7 |
| 20260504191844 | 66 | 220 | 2.0 | 4.0 | 0.00 | 0.00 | 0.00 | 52 | 1012.7 |
| 20260504191342 | 67 | 216 | 4.0 | 9.0 | 0.00 | 0.00 | 0.00 | 54 | 1012.6 |
| 20260504190837 | 67 | 235 | 3.0 | 4.0 | 0.00 | 0.00 | 0.00 | 55 | 1012.8 |
| 20260504190333 | 67 | 172 | 2.0 | 4.0 | 0.00 | 0.00 | 0.00 | 54 | 1012.5 |
| 20260504185830 | 66 | 212 | 3.0 | 6.0 | 0.00 | 0.00 | 0.00 | 56 | 1012.5 |
| 20260504185327 | 64 | 176 | 5.0 | 14.0 | 0.00 | 0.00 | 0.00 | 55 | 1012.6 |
| 20260504184823 | 64 | 178 | 4.0 | 13.0 | 0.00 | 0.00 | 0.00 | 56 | 1012.8 |
| 20260504184319 | 65 | 268 | 11.0 | 17.0 | 0.00 | 0.00 | 0.00 | 54 | 1012.7 |
| 20260504183815 | 66 | 220 | 4.0 | 4.0 | 0.00 | 0.00 | 0.00 | 54 | 1012.7 |
| 20260504183312 | 66 | 91 | 4.0 | 9.0 | 0.00 | 0.00 | 0.00 | 54 | 1012.8 |
| 20260504182810 | 64 | 204 | 4.0 | 8.0 | 0.00 | 0.00 | 0.00 | 58 | 1012.6 |
| 20260504182307 | 65 | 138 | 8.0 | 9.0 | 0.00 | 0.00 | 0.00 | 57 | 1012.8 |
| 20260504181804 | 64 | 230 | 2.0 | 13.0 | 0.00 | 0.00 | 0.00 | 59 | 1012.9 |
| 20260504181301 | 64 | 204 | 5.0 | 7.0 | 0.00 | 0.00 | 0.00 | 64 | 1012.8 |
| 20260504180801 | 63 | 206 | 3.0 | 10.0 | 0.00 | 0.00 | 0.00 | 63 | 1013.1 |
| 20260504180259 | 64 | 140 | 6.0 | 10.0 | 0.00 | 0.00 | 0.00 | 61 | 1013.1 |
| 20260504175756 | 64 | 159 | 7.0 | 8.0 | 0.00 | 0.00 | 0.00 | 57 | 1013.0 |
| 20260504175253 | 62 | 171 | 4.0 | 13.0 | 0.00 | 0.00 | 0.00 | 63 | 1013.2 |
| 20260504174751 | 61 | 207 | 2.0 | 6.0 | 0.00 | 0.00 | 0.00 | 60 | 1013.1 |
| 20260504174249 | 62 | 149 | 4.0 | 11.0 | 0.00 | 0.00 | 0.00 | 61 | 1013.4 |
| 20260504173745 | 62 | 235 | 4.0 | 10.0 | 0.00 | 0.00 | 0.00 | 62 | 1013.2 |
| 20260504173242 | 62 | 217 | 6.0 | 10.0 | 0.00 | 0.00 | 0.00 | 56 | 1013.2 |
| 20260504172738 | 63 | 140 | 4.0 | 7.0 | 0.00 | 0.00 | 0.00 | 56 | 1013.0 |
| 20260504172235 | 65 | 144 | 4.0 | 9.0 | 0.00 | 0.00 | 0.00 | 56 | 1013.2 |
| 20260504171731 | 65 | 216 | 2.0 | 6.0 | 0.00 | 0.00 | 0.00 | 56 | 1013.0 |
| 20260504171228 | 64 | 228 | 2.0 | 6.0 | 0.00 | 0.00 | 0.00 | 54 | 1013.6 |
| 20260504170725 | 61 | 89 | 2.0 | 10.0 | 0.00 | 0.00 | 0.00 | 57 | 1013.6 |
| 20260504170223 | 61 | 262 | 4.0 | 11.0 | 0.00 | 0.00 | 0.00 | 56 | 1013.4 |
| 20260504160141 | 62 | 158 | 8.0 | 9.0 | 0.00 | 0.00 | 0.00 | 54 | 1014.2 |
| 20260504151108 | 62 | 194 | 3.0 | 11.0 | 0.00 | 0.00 | 0.00 | 51 | 1014.6 |
| 20260504150606 | 62 | 71 | 2.0 | 3.0 | 0.00 | 0.00 | 0.00 | 47 | 1014.5 |
| 20260504141032 | 58 | 146 | 5.0 | 8.0 | 0.00 | 0.00 | 0.00 | 50 | 1014.3 |
| 20260504140528 | 58 | 206 | 2.0 | 3.0 | 0.00 | 0.00 | 0.00 | 51 | 1014.3 |
| 20260504130453 | 51 | 140 | 8.0 | 10.0 | 0.00 | 0.00 | 0.00 | 58 | 1014.9 |
| 20260504110340 | 46 | 209 | 3.0 | 9.0 | 0.00 | 0.00 | 0.00 | 69 | 1014.9 |
| 20260504100257 | 45 | 176 | 2.0 | 4.0 | 0.00 | 0.00 | 0.00 | 71 | 1015.0 |
| 20260504081650 | 45 | 211 | 1.0 | 4.0 | 0.00 | 0.00 | 0.00 | 63 | 1015.3 |
| 20260504081146 | 45 | 209 | 2.0 | 6.0 | 0.00 | 0.00 | 0.00 | 60 | 1015.3 |
| 20260504080643 | 45 | 170 | 3.0 | 3.0 | 0.00 | 0.00 | 0.00 | 58 | 1015.4 |
| 20260504080139 | 45 | 178 | 3.0 | 6.0 | 0.00 | 0.00 | 0.00 | 56 | 1015.3 |
| 20260504070108 | 45 | 174 | 2.0 | 2.0 | 0.00 | 0.00 | 0.00 | 57 | 1015.6 |
| 20260504050456 | 45 | 233 | 1.0 | 4.0 | 0.00 | 0.00 | 0.00 | 56 | 1015.8 |
| 20260504045953 | 45 | 196 | 1.0 | 3.0 | 0.00 | 0.00 | 0.00 | 55 | 1015.9 |
| 20260504045449 | 45 | 227 | 1.0 | 1.0 | 0.00 | 0.00 | 0.00 | 55 | 1015.8 |
| 20260504044945 | 45 | 234 | 0.0 | 2.0 | 0.00 | 0.00 | 0.00 | 57 | 1016.1 |
| 20260504044443 | 45 | 189 | 1.0 | 2.0 | 0.00 | 0.00 | 0.00 | 55 | 1016.2 |
| 20260504043940 | 45 | 165 | 0.0 | 3.0 | 0.00 | 0.00 | 0.00 | 53 | 1015.9 |
| 20260504043437 | 44 | 189 | 2.0 | 6.0 | 0.00 | 0.00 | 0.00 | 54 | 1016.1 |
| 20260504042934 | 44 | 224 | 1.0 | 2.0 | 0.00 | 0.00 | 0.00 | 57 | 1016.1 |
| 20260504042431 | 44 | 201 | 1.0 | 1.0 | 0.00 | 0.00 | 0.00 | 56 | 1015.8 |
| 20260504041927 | 44 | 224 | 1.0 | 2.0 | 0.00 | 0.00 | 0.00 | 57 | 1015.8 |
| 20260504041424 | 44 | 217 | 0.0 | 6.0 | 0.00 | 0.00 | 0.00 | 57 | 1016.2 |
| 20260504040920 | 44 | 190 | 1.0 | 2.0 | 0.00 | 0.00 | 0.00 | 59 | 1015.9 |
| 20260504040418 | 43 | 165 | 0.0 | 1.0 | 0.00 | 0.00 | 0.00 | 59 | 1015.9 |
| 20260504035913 | 43 | 232 | 0.0 | 0.0 | 0.00 | 0.00 | 0.00 | 59 | 1016.1 |
| 20260504035411 | 43 | 212 | 1.0 | 1.0 | 0.00 | 0.00 | 0.00 | 57 | 1015.9 |
| 20260504034907 | 43 | 215 | 0.0 | 0.0 | 0.00 | 0.00 | 0.00 | 55 | 1016.1 |